Date,TemperatureHighF,TemperatureAvgF,TemperatureLowF,DewpointHighF,DewpointAvgF,DewpointLowF,HumidityHigh,HumidityAvg,HumidityLow,PressureMaxIn,PressureMinIn,WindSpeedMaxMPH,WindSpeedAvgMPH,GustSpeedMaxMPH,PrecipitationSumIn
2013-3-1,44.6,38.8,32.4,40.2,35.1,29.4,93,87,78,30.38,30.30,17,8,26,0.00
2013-3-2,42.0,36.7,28.7,35.3,31.6,25.9,89,82,74,30.37,30.22,8,4,9,0.00
2013-3-3,44.5,34.9,28.4,38.4,32.0,25.7,94,89,76,30.23,29.92,11,4,14,0.00
2013-3-4,51.0,40.1,37.3,42.1,31.1,-99.9,92,80,69,29.92,29.63,21,-26,27,0.00
2013-3-5,55.6,48.6,39.0,47.9,42.8,33.9,86,80,73,29.63,29.43,17,12,24,0.00
2013-3-6,53.9,50.6,47.7,49.8,46.9,44.4,93,87,82,29.44,29.32,18,11,23,0.00
2013-3-7,53.5,50.2,48.5,52.1,49.0,47.4,97,95,92,29.33,29.20,15,10,20,0.03
2013-3-8,57.8,51.3,48.5,52.5,49.3,47.1,98,93,77,29.45,29.24,14,8,19,0.01
2013-3-9,54.6,49.6,46.3,50.6,47.1,44.7,99,91,80,29.53,29.45,12,8,17,0.01
2013-3-10,46.3,38.7,32.5,44.7,36.9,28.8,96,93,86,29.58,29.48,26,19,35,0.09
2013-3-11,37.0,31.3,28.2,28.7,24.5,19.8,86,76,61,29.79,29.57,23,18,34,0.00
2013-3-12,38.8,32.7,26.4,29.6,23.2,18.6,77,68,55,29.90,29.79,20,14,26,0.00
2013-3-13,43.0,38.2,31.7,38.6,33.1,25.3,91,82,72,29.97,29.87,14,6,27,0.01
2013-3-14,45.2,39.4,33.3,39.2,34.2,29.9,93,82,67,30.06,29.89,11,4,15,0.02
2013-3-15,47.0,43.1,40.4,43.7,41.5,38.3,98,94,85,29.89,29.37,19,10,31,0.67
2013-3-16,44.9,40.1,36.9,43.1,38.9,35.7,98,95,87,29.37,29.16,11,4,16,0.35
2013-3-17,46.1,39.5,35.6,40.8,36.2,33.7,96,88,74,29.27,29.15,6,3,9,0.05
2013-3-18,48.3,41.3,36.6,42.0,37.8,34.3,95,88,77,29.35,29.13,7,2,9,0.00
2013-3-19,47.9,40.9,35.7,40.5,37.3,33.6,95,87,73,29.45,29.34,7,2,9,0.00
2013-3-20,48.6,41.6,36.3,40.6,37.1,33.8,93,84,69,29.85,29.45,13,2,17,0.00
2013-3-21,49.2,43.3,39.2,48.4,41.6,36.7,98,94,87,29.84,29.52,23,17,37,0.31
2013-3-22,49.6,45.7,42.3,48.8,44.5,41.2,97,96,93,29.56,29.40,20,15,28,0.34
2013-3-23,52.0,42.3,35.1,46.7,40.4,33.8,98,93,81,29.75,29.55,16,10,22,0.00
2013-3-24,38.6,34.5,31.0,35.7,32.3,27.9,95,92,88,29.86,29.72,18,13,24,0.00
2013-3-25,36.8,33.0,28.1,30.3,27.8,24.7,92,81,76,29.89,29.85,16,10,19,0.00
2013-3-26,39.8,32.4,27.1,30.8,27.0,24.4,91,81,67,29.89,29.82,14,8,21,0.00
2013-3-27,42.1,34.1,29.2,33.6,27.9,24.5,90,78,64,29.85,29.79,14,8,16,0.00
2013-3-28,46.7,34.8,27.9,32.5,28.4,24.9,92,79,52,29.86,29.80,11,8,16,0.00
2013-3-29,43.8,35.9,29.6,32.8,28.3,25.1,85,74,62,29.80,29.64,17,12,23,0.00
2013-3-30,47.1,36.7,29.7,32.0,27.6,23.8,81,70,53,29.90,29.67,15,8,20,0.00
2013-3-31,44.1,36.5,30.3,35.4,30.7,24.9,90,79,65,29.89,29.68,14,8,20,0.00